Regional Weather Roundup
Issued by NWS

Home | Current Version | Previous Version | Graphics & Text | Print | Product List | Glossary On
Versions: 1 2 3 4 5 6 7 8 9 10 11 12 13 14 15 16 17 18 19 20 21 22 23 24 25 26 27 28 29 30 31 32 33 34 35 36 37 38 39 40 41 42 43 44 45 46 47 48 49 50
427
ASUS45 KSLC 230610
RWRUT

UTAH REGIONAL WEATHER ROUNDUP
NATIONAL WEATHER SERVICE SALT LAKE CITY UT
1200 AM MDT SAT JUL 23 2016

UTZ001>011-023>025-230700-

NORTHERN UTAH

CITY           SKY/WX    TMP DP  RH WIND       PRES   REMARKS
BRIGHAM CITY     N/A     75  33  21 CALM      30.08S
HILL AFB       CLEAR     78  40  25 NE3       30.10S
LOGAN          CLEAR     69  38  32 S3        30.11R
OGDEN          CLEAR     77  40  26 N7        30.07R
PROVO AIRPORT  CLEAR     75  57  53 CALM      30.08R
SALT LAKE CITY PTCLDY    81  43  26 NW9       30.06R
VERNAL         CLOUDY    73  47  39 W7        30.19S
WENDOVER       CLEAR     82  23  11 N12       30.11R
HEBER CITY     PTCLDY    68  45  42 CALM      30.19R

$$

UTZ012>022-026-027-230700-

SOUTHERN/CENTRAL UTAH

CITY           SKY/WX    TMP DP  RH WIND       PRES   REMARKS
BLANDING       MOCLDY    74  46  36 N9        30.31F
BRYCE CANYON   PTCLDY    58  49  72 W5        30.39F
CEDAR CITY     CLEAR     77  37  23 S6        30.18F
DELTA          PTCLDY    81  36  19 N10       30.07R
MILFORD        CLEAR     78  34  20 S14       30.10R
MOAB/CYNLANDS  PTCLDY    78  48  34 NE7       30.14R
PRICE          PTCLDY    68  52  56 NE8       30.23S
ST GEORGE      PTCLDY    91  37  15 S5        29.95S
KANAB          MOCLDY    82  46  28 SW8       30.20R

$$

REGIONAL REPORTS     COLORADO/ARIZONA

CITY           SKY/WX    TMP DP  RH WIND       PRES   REMARKS
CRAIG, CO      CLOUDY    60  50  69 SE5       30.26F
GRAND JUNCTION CLOUDY    75  53  46 NE10      30.21R
RIFLE          CLOUDY    68  56  65 NW3       30.26R
MONTROSE       CLOUDY    70  50  49 S12       30.29F
CORTEZ         CLOUDY    69  47  45 N8        30.24F
PAGE, AZ       MOCLDY    84  49  29 VRB3      30.11R
GRAND CANYON   CLOUDY    64  56  75 CALM      30.36S
KINGMAN        MOCLDY    89  36  15 E7        30.04R
FLAGSTAFF      CLOUDY    68  48  48 CALM      30.39F

$$

REGIONAL REPORTS    NEVADA/IDAHO/WYOMING

CITY           SKY/WX    TMP DP  RH WIND       PRES   REMARKS
LAS VEGAS, NV  PTCLDY    99  25   7 SW6       29.83S HX  92
ELY            CLEAR     65  18  16 NW6       30.27R
ELKO           CLEAR     68  15  13 CALM      30.19S
POCATELLO, ID  CLEAR     69  31  24 S10       30.13R
BURLEY         CLEAR     64  44  48 W8        30.11S
EVANSTON, WY   CLEAR     68  29  23 N8        30.31R
ROCK SPRINGS   CLOUDY    70  37  29 SW12      30.23S
KEMMERER         N/A     61  32  33 N8        30.30R

$$




USA.gov is the U.S. government's official web portal to all federal, state and local government web resources and services.